TimeEST,TemperatureF,Dew PointF,Humidity,Sea Level PressureIn,VisibilityMPH,Wind Direction,Wind SpeedMPH,Gust SpeedMPH,PrecipitationIn,Events,Conditions,WindDirDegrees,DateUTC
12:15 AM,23.0,1.4,39,30.47,10.0,NW,13.8,17.3,N/A,,Clear,320,2013-01-25 05:15:00
12:35 AM,23.0,1.4,39,30.47,10.0,NNW,9.2,-,N/A,,Clear,330,2013-01-25 05:35:00
12:55 AM,23.0,1.4,39,30.47,10.0,NW,9.2,18.4,N/A,,Clear,320,2013-01-25 05:55:00
1:15 AM,23.0,1.4,39,30.47,10.0,NW,8.1,16.1,N/A,,Clear,320,2013-01-25 06:15:00
1:35 AM,23.0,1.4,39,30.48,10.0,NW,8.1,-,N/A,,Clear,320,2013-01-25 06:35:00
1:55 AM,21.2,1.4,42,30.48,10.0,NW,10.4,18.4,N/A,,Clear,320,2013-01-25 06:55:00
2:15 AM,21.2,1.4,42,30.47,10.0,NNW,9.2,-,N/A,,Clear,330,2013-01-25 07:15:00
2:35 AM,21.2,1.4,42,30.47,10.0,NNW,6.9,-,N/A,,Clear,330,2013-01-25 07:35:00
2:55 AM,21.2,1.4,42,30.48,10.0,NW,6.9,-,N/A,,Clear,310,2013-01-25 07:55:00
3:15 AM,21.2,1.4,42,30.47,10.0,NW,10.4,-,N/A,,Clear,320,2013-01-25 08:15:00
3:35 AM,21.2,-0.4,39,30.47,10.0,NNW,6.9,-,N/A,,Clear,330,2013-01-25 08:35:00
3:55 AM,19.4,1.4,46,30.47,10.0,NW,8.1,-,N/A,,Clear,320,2013-01-25 08:55:00
4:15 AM,19.4,-0.4,42,30.47,10.0,NNW,10.4,-,N/A,,Clear,340,2013-01-25 09:15:00
4:35 AM,19.4,1.4,46,30.46,10.0,NNW,8.1,-,N/A,,Clear,340,2013-01-25 09:35:00
4:55 AM,19.4,1.4,46,30.46,10.0,NNW,8.1,-,N/A,,Clear,330,2013-01-25 09:55:00
5:15 AM,19.4,1.4,46,30.46,10.0,NNW,8.1,-,N/A,,Clear,330,2013-01-25 10:15:00
5:35 AM,19.4,1.4,46,30.46,10.0,NNW,5.8,-,N/A,,Clear,330,2013-01-25 10:35:00
5:55 AM,19.4,1.4,46,30.45,10.0,North,5.8,-,N/A,,Clear,350,2013-01-25 10:55:00
6:15 AM,19.4,1.4,46,30.47,10.0,NNW,4.6,-,N/A,,Clear,330,2013-01-25 11:15:00
6:35 AM,19.4,1.4,46,30.46,10.0,NNW,4.6,-,N/A,,Clear,340,2013-01-25 11:35:00
6:55 AM,19.4,1.4,46,30.47,10.0,NNW,6.9,-,N/A,,Clear,340,2013-01-25 11:55:00
7:15 AM,17.6,1.4,49,30.47,10.0,NW,5.8,-,N/A,,Clear,320,2013-01-25 12:15:00
7:35 AM,19.4,1.4,46,30.47,10.0,NW,4.6,-,N/A,,Clear,310,2013-01-25 12:35:00
7:55 AM,19.4,3.2,49,30.46,10.0,NNW,5.8,-,N/A,,Clear,330,2013-01-25 12:55:00
8:35 AM,19.4,1.4,46,30.46,10.0,NW,5.8,-,N/A,,Clear,320,2013-01-25 13:35:00
8:55 AM,19.4,1.4,46,30.46,10.0,NW,4.6,-,N/A,,Clear,320,2013-01-25 13:55:00
9:15 AM,19.4,3.2,49,30.45,10.0,NW,4.6,-,N/A,,Clear,320,2013-01-25 14:15:00
9:35 AM,21.2,3.2,46,30.45,10.0,NW,4.6,-,N/A,,Clear,320,2013-01-25 14:35:00
9:55 AM,21.2,3.2,46,30.45,10.0,WNW,4.6,-,N/A,,Clear,300,2013-01-25 14:55:00
10:15 AM,21.2,5.0,50,30.43,10.0,NNW,5.8,-,N/A,,Clear,340,2013-01-25 15:15:00
10:35 AM,21.2,6.8,54,30.43,10.0,WNW,3.5,-,N/A,,Clear,300,2013-01-25 15:35:00
10:55 AM,21.2,6.8,54,30.41,10.0,West,3.5,-,N/A,,Partly Cloudy,260,2013-01-25 15:55:00
11:15 AM,21.2,6.8,54,30.39,-9999.0,Calm,Calm,-,N/A,,Clear,0,2013-01-25 16:15:00
11:35 AM,23.0,6.8,50,30.38,-9999.0,WNW,4.6,-,N/A,,Clear,290,2013-01-25 16:35:00
11:55 AM,23.0,6.8,50,30.37,-9999.0,West,5.8,-,N/A,,Clear,280,2013-01-25 16:55:00
12:15 PM,23.0,8.6,54,30.35,10.0,WNW,4.6,-,N/A,,Clear,290,2013-01-25 17:15:00
12:35 PM,23.0,8.6,54,30.35,10.0,WNW,3.5,-,N/A,,Partly Cloudy,290,2013-01-25 17:35:00
12:55 PM,23.0,8.6,54,30.35,10.0,West,5.8,-,N/A,,Partly Cloudy,270,2013-01-25 17:55:00
1:15 PM,24.8,8.6,50,30.34,10.0,WSW,8.1,-,N/A,,Partly Cloudy,240,2013-01-25 18:15:00
1:35 PM,24.8,8.6,50,30.32,10.0,SSW,10.4,-,N/A,,Scattered Clouds,210,2013-01-25 18:35:00
2:15 PM,24.8,6.8,46,30.29,10.0,South,6.9,-,N/A,,Mostly Cloudy,190,2013-01-25 19:15:00
2:35 PM,24.8,6.8,46,30.27,10.0,SSW,8.1,-,N/A,,Overcast,200,2013-01-25 19:35:00
2:55 PM,24.8,5.0,43,30.24,10.0,SE,3.5,-,N/A,,Overcast,140,2013-01-25 19:55:00
3:15 PM,24.8,5.0,43,30.24,10.0,SSW,6.9,-,N/A,,Overcast,210,2013-01-25 20:15:00
3:35 PM,24.8,6.8,46,30.23,10.0,South,4.6,-,N/A,,Mostly Cloudy,190,2013-01-25 20:35:00
3:55 PM,24.8,6.8,46,30.22,10.0,SSW,5.8,-,N/A,,Mostly Cloudy,200,2013-01-25 20:55:00
4:15 PM,24.8,6.8,46,30.21,10.0,SSW,4.6,-,N/A,,Overcast,200,2013-01-25 21:15:00
4:35 PM,24.8,6.8,46,30.20,7.0,SW,9.2,-,N/A,,Mostly Cloudy,230,2013-01-25 21:35:00
4:55 PM,23.0,12.2,63,30.20,3.0,WSW,6.9,-,N/A,,Overcast,250,2013-01-25 21:55:00
5:15 PM,21.2,14.0,74,30.20,2.0,WSW,3.5,-,N/A,,Overcast,240,2013-01-25 22:15:00
5:35 PM,21.2,15.8,80,30.19,3.0,Calm,Calm,-,N/A,,Overcast,0,2013-01-25 22:35:00
5:55 PM,21.2,15.8,80,30.18,1.0,SSW,3.5,-,N/A,,Overcast,200,2013-01-25 22:55:00
6:15 PM,21.2,17.6,86,30.17,1.0,Calm,Calm,-,N/A,,Overcast,0,2013-01-25 23:15:00
6:35 PM,21.2,17.6,86,30.15,-9999.0,Calm,Calm,-,N/A,,Unknown,0,2013-01-25 23:35:00
6:55 PM,21.2,17.6,86,30.15,2.0,Calm,Calm,-,N/A,,Overcast,0,2013-01-25 23:55:00
7:15 PM,21.2,17.6,86,30.14,-9999.0,South,3.5,-,N/A,,Unknown,190,2013-01-26 00:15:00
7:35 PM,23.0,17.6,80,30.13,-9999.0,Calm,Calm,-,N/A,,Overcast,0,2013-01-26 00:35:00
7:55 PM,23.0,17.6,80,30.13,-9999.0,SSW,4.6,-,N/A,,Mostly Cloudy,210,2013-01-26 00:55:00
8:15 PM,23.0,17.6,80,30.12,9.0,Calm,Calm,-,N/A,,Mostly Cloudy,0,2013-01-26 01:15:00
8:35 PM,21.2,17.6,86,30.12,-9999.0,WSW,3.5,-,N/A,,Unknown,250,2013-01-26 01:35:00
8:55 PM,21.2,17.6,86,30.11,-9999.0,SW,3.5,-,N/A,,Unknown,220,2013-01-26 01:55:00
9:15 PM,21.2,17.6,86,30.11,-9999.0,WSW,3.5,-,N/A,,Unknown,250,2013-01-26 02:15:00
9:35 PM,24.8,19.4,80,30.09,-9999.0,WSW,5.8,-,N/A,,Overcast,250,2013-01-26 02:35:00
9:55 PM,24.8,17.6,74,30.09,10.0,West,9.2,-,N/A,,Overcast,280,2013-01-26 02:55:00
10:15 PM,24.8,17.6,74,30.07,10.0,West,6.9,-,N/A,,Overcast,280,2013-01-26 03:15:00
10:35 PM,24.8,15.8,69,30.07,10.0,West,9.2,-,N/A,,Overcast,280,2013-01-26 03:35:00
10:55 PM,24.8,15.8,69,30.08,10.0,West,9.2,-,N/A,,Overcast,280,2013-01-26 03:55:00
11:15 PM,24.8,15.8,69,30.08,10.0,West,9.2,-,N/A,,Overcast,280,2013-01-26 04:15:00
11:35 PM,24.8,15.8,69,30.07,10.0,WNW,10.4,16.1,N/A,,Overcast,300,2013-01-26 04:35:00
11:55 PM,24.8,15.8,69,30.07,10.0,WNW,9.2,-,N/A,,Overcast,290,2013-01-26 04:55:00